| time (UTC) | temp F | wind direction | speed MPH | gust MPH | rain 1hr in | rain 24hr in | rain mn in | humidity % | barometer mb |
| 20260502170203 | 56 | 306 | 10.0 | 18.0 | 0.00 | 0.00 | 0.00 | 45 | 1017.0 |
| 20260502163703 | 55 | 279 | 7.0 | 14.0 | 0.00 | 0.00 | 0.00 | 51 | 1017.2 |
| 20260502163203 | 55 | 311 | 4.0 | 14.0 | 0.00 | 0.00 | 0.00 | 52 | 1017.1 |
| 20260502161703 | 56 | 348 | 4.0 | 12.0 | 0.00 | 0.00 | 0.00 | 47 | 1017.2 |
| 20260502161202 | 56 | 274 | 3.0 | 12.0 | 0.00 | 0.00 | 0.00 | 51 | 1017.3 |
| 20260502160704 | 57 | 287 | 5.0 | 8.0 | 0.00 | 0.00 | 0.00 | 50 | 1017.3 |
| 20260502160202 | 57 | 293 | 3.0 | 9.0 | 0.00 | 0.00 | 0.00 | 53 | 1017.2 |
| 20260502151202 | 56 | 262 | 6.0 | 9.0 | 0.00 | 0.00 | 0.00 | 55 | 1017.5 |
| 20260502150702 | 55 | 224 | 5.0 | 12.0 | 0.00 | 0.00 | 0.00 | 59 | 1017.5 |
| 20260502150203 | 54 | 348 | 3.0 | 12.0 | 0.00 | 0.00 | 0.00 | 60 | 1017.5 |
| 20260502130703 | 46 | 191 | 1.0 | 2.0 | 0.00 | 0.00 | 0.00 | 97 | 1017.9 |
| 20260502130203 | 45 | 31 | 0.0 | 0.0 | 0.00 | 0.00 | 0.00 | 97 | 1017.9 |
| 20260502123702 | 42 | 31 | 0.0 | 0.0 | 0.00 | 0.00 | 0.00 | 98 | 1017.8 |
| 20260502123204 | 42 | 31 | 0.0 | 0.0 | 0.00 | 0.00 | 0.00 | 98 | 1017.7 |
| 20260502121703 | 41 | 31 | 0.0 | 0.0 | 0.00 | 0.00 | 0.00 | 99 | 1017.7 |
| 20260502121203 | 41 | 31 | 0.0 | 0.0 | 0.00 | 0.00 | 0.00 | 99 | 1017.8 |
| 20260502120703 | 41 | 31 | 0.0 | 0.0 | 0.00 | 0.00 | 0.00 | 99 | 1017.7 |
| 20260502120203 | 40 | 31 | 0.0 | 0.0 | 0.00 | 0.00 | 0.00 | 99 | 1017.8 |
| 20260502114703 | 40 | 31 | 0.0 | 0.0 | 0.00 | 0.00 | 0.00 | 99 | 1017.7 |
| 20260502113704 | 39 | 31 | 0.0 | 0.0 | 0.00 | 0.00 | 0.00 | 99 | 1017.6 |
| 20260502113202 | 39 | 31 | 0.0 | 0.0 | 0.00 | 0.00 | 0.00 | 99 | 1017.7 |
| 20260502111703 | 38 | 68 | 1.0 | 5.0 | 0.00 | 0.00 | 0.00 | 98 | 1017.5 |
| 20260502110203 | 39 | 340 | 0.0 | 0.0 | 0.00 | 0.00 | 0.00 | 98 | 1017.3 |
| 20260502104204 | 40 | 340 | 0.0 | 1.0 | 0.00 | 0.00 | 0.00 | 98 | 1017.1 |
| 20260502103203 | 40 | 8 | 0.0 | 1.0 | 0.00 | 0.00 | 0.00 | 98 | 1017.2 |
| 20260502101204 | 40 | 41 | 0.0 | 0.0 | 0.00 | 0.00 | 0.00 | 98 | 1017.5 |
| 20260502100704 | 40 | 41 | 0.0 | 2.0 | 0.00 | 0.00 | 0.00 | 98 | 1017.5 |
| 20260502100203 | 40 | 41 | 0.0 | 2.0 | 0.00 | 0.00 | 0.00 | 98 | 1017.4 |
| 20260502091204 | 40 | 298 | 0.0 | 0.0 | 0.00 | 0.00 | 0.00 | 98 | 1017.6 |
| 20260502090703 | 40 | 298 | 0.0 | 0.0 | 0.00 | 0.00 | 0.00 | 98 | 1017.5 |
| 20260502090203 | 40 | 298 | 0.0 | 0.0 | 0.00 | 0.00 | 0.00 | 98 | 1017.7 |
| 20260502071203 | 39 | 298 | 0.0 | 0.0 | 0.00 | 0.00 | 0.00 | 98 | 1017.2 |
| 20260502070703 | 39 | 298 | 0.0 | 0.0 | 0.00 | 0.00 | 0.00 | 98 | 1017.2 |
| 20260502070203 | 39 | 298 | 0.0 | 0.0 | 0.00 | 0.00 | 0.00 | 98 | 1017.2 |
| 20260502064703 | 39 | 298 | 0.0 | 0.0 | 0.00 | 0.00 | 0.00 | 98 | 1017.3 |
| 20260502064203 | 39 | 298 | 0.0 | 0.0 | 0.00 | 0.00 | 0.00 | 97 | 1017.2 |
| 20260502063703 | 39 | 298 | 0.0 | 0.0 | 0.00 | 0.00 | 0.00 | 98 | 1017.2 |
| 20260502060703 | 39 | 298 | 0.0 | 0.0 | 0.00 | 0.00 | 0.00 | 97 | 1017.8 |
| 20260502060203 | 39 | 298 | 0.0 | 0.0 | 0.00 | 0.00 | 0.00 | 97 | 1017.8 |
| 20260502054703 | 40 | 298 | 0.0 | 0.0 | 0.00 | 0.00 | 0.00 | 96 | 1017.7 |
| 20260502054203 | 40 | 298 | 0.0 | 0.0 | 0.00 | 0.00 | 0.00 | 96 | 1017.9 |
| 20260502053703 | 40 | 298 | 0.0 | 0.0 | 0.00 | 0.00 | 0.00 | 96 | 1017.9 |
| 20260502053203 | 40 | 298 | 0.0 | 0.0 | 0.00 | 0.00 | 0.00 | 96 | 1017.9 |
| 20260502051703 | 41 | 298 | 0.0 | 0.0 | 0.00 | 0.00 | 0.00 | 96 | 1017.9 |
| 20260502050703 | 41 | 298 | 0.0 | 0.0 | 0.00 | 0.00 | 0.00 | 96 | 1017.9 |
| 20260502050203 | 41 | 298 | 0.0 | 0.0 | 0.00 | 0.00 | 0.00 | 96 | 1017.9 |
| 20260502044203 | 42 | 298 | 0.0 | 0.0 | 0.00 | 0.00 | 0.00 | 95 | 1018.0 |
| 20260502043703 | 42 | 298 | 0.0 | 0.0 | 0.00 | 0.00 | 0.00 | 95 | 1018.0 |
| 20260502043203 | 42 | 298 | 0.0 | 0.0 | 0.00 | 0.00 | 0.00 | 94 | 1018.1 |
| 20260502041703 | 43 | 298 | 0.0 | 0.0 | 0.00 | 0.00 | 0.00 | 94 | 1017.9 |
| 20260502041203 | 43 | 298 | 0.0 | 0.0 | 0.00 | 0.00 | 0.00 | 93 | 1017.9 |
| 20260502040703 | 43 | 298 | 0.0 | 0.0 | 0.00 | 0.00 | 0.00 | 93 | 1017.8 |
| 20260502040203 | 43 | 298 | 0.0 | 0.0 | 0.00 | 0.00 | 0.00 | 92 | 1017.9 |
| 20260502034703 | 44 | 298 | 0.0 | 0.0 | 0.00 | 0.00 | 0.00 | 91 | 1017.7 |
| 20260502034203 | 45 | 298 | 0.0 | 0.0 | 0.00 | 0.00 | 0.00 | 91 | 1017.6 |
| 20260502033203 | 45 | 298 | 0.0 | 0.0 | 0.00 | 0.00 | 0.00 | 90 | 1017.6 |
| 20260502031703 | 45 | 298 | 0.0 | 0.0 | 0.00 | 0.00 | 0.00 | 87 | 1017.8 |
| 20260502031203 | 45 | 298 | 0.0 | 0.0 | 0.00 | 0.00 | 0.00 | 87 | 1017.7 |
| 20260502030702 | 46 | 298 | 0.0 | 0.0 | 0.00 | 0.00 | 0.00 | 86 | 1017.8 |
| 20260502030203 | 46 | 298 | 0.0 | 0.0 | 0.00 | 0.00 | 0.00 | 85 | 1017.8 |
| 20260502024703 | 47 | 298 | 0.0 | 0.0 | 0.00 | 0.00 | 0.00 | 82 | 1017.8 |
| 20260502024204 | 47 | 298 | 0.0 | 0.0 | 0.00 | 0.00 | 0.00 | 81 | 1017.8 |
| 20260502023703 | 48 | 298 | 0.0 | 0.0 | 0.00 | 0.00 | 0.00 | 81 | 1017.8 |
| 20260502023204 | 48 | 298 | 0.0 | 0.0 | 0.00 | 0.00 | 0.00 | 80 | 1017.8 |
| 20260502021703 | 49 | 298 | 0.0 | 0.0 | 0.00 | 0.00 | 0.00 | 76 | 1017.4 |
| 20260502021203 | 50 | 298 | 0.0 | 0.0 | 0.00 | 0.00 | 0.00 | 75 | 1017.3 |
| 20260502020703 | 50 | 298 | 0.0 | 0.0 | 0.00 | 0.00 | 0.00 | 75 | 1017.2 |
| 20260502014703 | 51 | 1 | 1.0 | 6.0 | 0.00 | 0.00 | 0.00 | 71 | 1016.9 |
| 20260502014203 | 51 | 314 | 3.0 | 7.0 | 0.00 | 0.00 | 0.00 | 70 | 1016.8 |
| 20260502013202 | 52 | 308 | 5.0 | 10.0 | 0.00 | 0.00 | 0.00 | 70 | 1016.7 |
| 20260502011703 | 53 | 318 | 4.0 | 9.0 | 0.00 | 0.00 | 0.00 | 69 | 1016.5 |
| 20260502010203 | 53 | 306 | 6.0 | 14.0 | 0.00 | 0.00 | 0.00 | 69 | 1016.3 |
| 20260502004703 | 54 | 310 | 5.0 | 10.0 | 0.00 | 0.00 | 0.00 | 69 | 1015.7 |
| 20260502004203 | 54 | 334 | 5.0 | 14.0 | 0.00 | 0.00 | 0.00 | 68 | 1015.5 |
| 20260502003703 | 54 | 8 | 6.0 | 14.0 | 0.00 | 0.00 | 0.00 | 69 | 1015.4 |
| 20260502003203 | 54 | 316 | 6.0 | 13.0 | 0.00 | 0.00 | 0.00 | 69 | 1015.2 |
| 20260502001203 | 55 | 306 | 5.0 | 14.0 | 0.00 | 0.00 | 0.00 | 69 | 1015.1 |
| 20260502000703 | 55 | 317 | 7.0 | 14.0 | 0.00 | 0.00 | 0.00 | 69 | 1015.0 |
| 20260502000204 | 55 | 303 | 6.0 | 13.0 | 0.00 | 0.00 | 0.00 | 68 | 1014.9 |
| 20260501234703 | 56 | 330 | 4.0 | 9.0 | 0.00 | 0.00 | 0.00 | 68 | 1014.4 |
| 20260501234203 | 56 | 309 | 5.0 | 9.0 | 0.00 | 0.00 | 0.00 | 67 | 1014.2 |
| 20260501233703 | 56 | 293 | 5.0 | 9.0 | 0.00 | 0.00 | 0.00 | 67 | 1014.1 |
| 20260501233204 | 56 | 313 | 5.0 | 13.0 | 0.00 | 0.00 | 0.00 | 67 | 1013.9 |
| 20260501231703 | 57 | 299 | 5.0 | 8.0 | 0.00 | 0.00 | 0.00 | 68 | 1013.8 |
| 20260501231203 | 57 | 309 | 5.0 | 9.0 | 0.00 | 0.00 | 0.00 | 68 | 1013.9 |
| 20260501230703 | 57 | 318 | 5.0 | 10.0 | 0.00 | 0.00 | 0.00 | 70 | 1013.9 |
| 20260501223704 | 57 | 321 | 3.0 | 5.0 | 0.00 | 0.00 | 0.00 | 74 | 1013.8 |
| 20260501223203 | 56 | 18 | 1.0 | 3.0 | 0.00 | 0.00 | 0.00 | 75 | 1013.9 |
| 20260501221703 | 56 | 311 | 3.0 | 7.0 | 0.00 | 0.00 | 0.00 | 74 | 1013.7 |
| 20260501221204 | 56 | 313 | 5.0 | 7.0 | 0.00 | 0.00 | 0.00 | 74 | 1013.7 |
| 20260501220704 | 57 | 325 | 2.0 | 8.0 | 0.00 | 0.00 | 0.00 | 73 | 1013.6 |
| 20260501213703 | 58 | 257 | 9.0 | 14.0 | 0.00 | 0.00 | 0.00 | 64 | 1013.6 |
| 20260501213203 | 59 | 261 | 6.0 | 14.0 | 0.00 | 0.00 | 0.00 | 65 | 1013.5 |
| 20260501211703 | 60 | 297 | 7.0 | 15.0 | 0.00 | 0.00 | 0.00 | 64 | 1013.4 |
| 20260501211204 | 60 | 299 | 8.0 | 17.0 | 0.00 | 0.00 | 0.00 | 65 | 1013.4 |
| 20260501210704 | 61 | 278 | 9.0 | 17.0 | 0.00 | 0.00 | 0.00 | 64 | 1013.3 |
| 20260501210203 | 61 | 272 | 8.0 | 14.0 | 0.00 | 0.00 | 0.00 | 63 | 1013.3 |
| 20260501204204 | 60 | 305 | 13.0 | 22.0 | 0.00 | 0.00 | 0.00 | 66 | 1013.2 |
| 20260501203703 | 60 | 297 | 9.0 | 20.0 | 0.00 | 0.00 | 0.00 | 67 | 1013.0 |
| 20260501203203 | 60 | 296 | 8.0 | 14.0 | 0.00 | 0.00 | 0.00 | 67 | 1013.1 |
| 20260501201703 | 60 | 319 | 6.0 | 10.0 | 0.00 | 0.00 | 0.00 | 67 | 1012.8 |
| 20260501201203 | 61 | 307 | 6.0 | 10.0 | 0.00 | 0.00 | 0.00 | 66 | 1012.8 |
| 20260501200704 | 61 | 317 | 5.0 | 10.0 | 0.00 | 0.00 | 0.00 | 65 | 1012.7 |
| 20260501200203 | 61 | 325 | 5.0 | 9.0 | 0.00 | 0.00 | 0.00 | 65 | 1012.6 |
| 20260501194703 | 62 | 301 | 4.0 | 9.0 | 0.00 | 0.00 | 0.00 | 64 | 1012.6 |
| 20260501194203 | 62 | 264 | 5.0 | 12.0 | 0.00 | 0.00 | 0.00 | 63 | 1012.5 |
| 20260501193703 | 62 | 276 | 8.0 | 12.0 | 0.00 | 0.00 | 0.00 | 59 | 1012.5 |
| 20260501193204 | 63 | 285 | 6.0 | 10.0 | 0.00 | 0.00 | 0.00 | 58 | 1012.4 |
| 20260501191703 | 64 | 271 | 3.0 | 14.0 | 0.00 | 0.00 | 0.00 | 55 | 1012.4 |
| 20260501191203 | 64 | 268 | 3.0 | 14.0 | 0.00 | 0.00 | 0.00 | 52 | 1012.3 |
| 20260501190204 | 66 | 289 | 2.0 | 13.0 | 0.00 | 0.00 | 0.00 | 50 | 1012.3 |
| 20260501184704 | 68 | 222 | 7.0 | 15.0 | 0.00 | 0.00 | 0.00 | 43 | 1012.1 |
| 20260501183703 | 69 | 207 | 8.0 | 16.0 | 0.00 | 0.00 | 0.00 | 43 | 1012.1 |
| 20260501183203 | 69 | 230 | 9.0 | 16.0 | 0.00 | 0.00 | 0.00 | 41 | 1012.1 |
| 20260501181703 | 68 | 257 | 8.0 | 18.0 | 0.00 | 0.00 | 0.00 | 44 | 1012.2 |
| 20260501181203 | 68 | 272 | 3.0 | 17.0 | 0.00 | 0.00 | 0.00 | 45 | 1012.1 |
| 20260501180703 | 68 | 237 | 7.0 | 17.0 | 0.00 | 0.00 | 0.00 | 43 | 1012.3 |
| 20260501174703 | 69 | 208 | 9.0 | 14.0 | 0.00 | 0.00 | 0.00 | 43 | 1012.4 |
| 20260501174203 | 69 | 273 | 7.0 | 13.0 | 0.00 | 0.00 | 0.00 | 44 | 1012.5 |
| 20260501173203 | 68 | 215 | 4.0 | 12.0 | 0.00 | 0.00 | 0.00 | 42 | 1012.6 |